Location: Banksville Park
(38.5557°N, 75.1182°W)
Time: 16:49:26
(UTC+00:00)

Cosmos 2285 Rocket - Pass Details

Date: 19 September 2020
Orbit: 970 x 1000 km, 74.0° (Epoch: 30 October)

Event Time Altitude Azimuth Distance (km) Brightness Sun altitude
Rises 00:43:51 0° 182° (S) 3,646 6.8 -20.2°
Reaches altitude 10° 00:46:25 10° 177° (S) 2,704 6.1 -20.6°
Maximum altitude 00:52:28 53° 103° (ESE) 1,185 4.0 -21.8°
Drops below altitude 10° 00:58:34 10° 28° (NNE) 2,734 6.3 -22.9°
Sets 01:01:11 0° 24° (NNE) 3,690 7.0 -23.3°
